User: anonymous   Login
Location: Unspecified
(28.3847°N, 0.0000°E)
Time: 02:50:20
(UTC+00:00)
Language:

deb HAPS - Orbit

View from above orbital plane
View from above orbital plane
View from above satellite
View from above satellite

Ground track
Ground track

The orbit is defined by the following mean orbital elements,

1 24602U          26088.18719028 +.00000000 +00000-0 +21184-2 0 00005
2 24602  81.5210 260.6675 0728929 213.2923 142.0306 13.44765064    00
Epoch (UTC): 29 March 2026 04:29:33
Eccentricity: 0.0728929
inclination: 81.5210°
perigee height: 547 km
apogee height: 1636 km
right ascension of ascending node: 260.6675°
argument of perigee: 213.2923°
revolutions per day: 13.44765064
mean anomaly at epoch: 142.0306°

The dashed part of the orbit path shows where the satellite is in the earth's shadow,  

DLR